EW4600 Weather Reports


time (UTC)temp
C
wind
direction
speed
KPH
gust
KPH
rain 1hr
cm
rain 24hr
cm
rain mn
cm
humidity
%
barometer
mb
20260906221557 36 360 4.8 19.3 0.00 0.00 0.00 39 1003.4
20260906220046 36 102 1.6 12.9 0.00 0.00 0.00 40 1003.5
20260906214545 36 126 8.0 16.1 0.00 0.00 0.00 40 1003.6
20260906213049 35 65 8.0 16.1 0.00 0.00 0.00 41 1003.9
20260906211542 35 112 6.4 20.9 0.00 0.00 0.00 40 1004.0
20260906210039 35 75 4.8 14.5 0.00 0.00 0.00 41 1004.2
20260906204556 36 92 4.8 17.7 0.00 0.00 0.00 40 1004.3
20260906203038 36 99 9.7 20.9 0.00 0.00 0.00 40 1004.4
20260906201543 36 101 6.4 35.4 0.00 0.00 0.00 38 1004.5
20260906200035 36 144 3.2 12.9 0.00 0.00 0.00 40 1004.7
20260906194535 36 75 3.2 14.5 0.00 0.00 0.00 40 1004.8
20260906193031 36 360 8.0 19.3 0.00 0.00 0.00 39 1005.0
20260906191530 36 360 6.4 17.7 0.00 0.00 0.00 39 1005.1
20260906190029 36 124 8.0 19.3 0.00 0.00 0.00 40 1005.2
20260906184526 36 360 8.0 22.5 0.00 0.00 0.00 42 1005.4
20260906183024 35 360 4.8 14.5 0.00 0.00 0.00 43 1005.5
20260906181523 35 360 6.4 16.1 0.00 0.00 0.00 44 1005.8
20260906180037 35 71 6.4 16.1 0.00 0.00 0.00 44 1006.0
20260906174521 35 360 9.7 16.1 0.00 0.00 0.00 44 1006.3
20260906173018 35 171 9.7 19.3 0.00 0.00 0.00 44 1006.4
20260906171515 35 360 8.0 16.1 0.00 0.00 0.00 46 1006.7
20260906170013 34 360 3.2 11.3 0.00 0.00 0.00 48 1006.8
20260906164510 34 360 4.8 12.9 0.00 0.00 0.00 49 1007.0
20260906163006 33 360 4.8 12.9 0.00 0.00 0.00 49 1007.0
20260906161505 33 119 3.2 14.5 0.00 0.00 0.00 52 1006.9
20260906154600 32 24 3.2 6.4 0.00 0.00 0.00 55 1007.0
20260906153052 32 360 0.0 6.4 0.00 0.00 0.00 58 1007.0
20260906151548 31 360 1.6 8.0 0.00 0.00 0.00 60 1006.8
20260906150044 30 76 3.2 6.4 0.00 0.00 0.00 62 1006.6
20260906144541 30 360 0.0 4.8 0.00 0.00 0.00 65 1006.6
20260906143038 29 109 1.6 4.8 0.00 0.00 0.00 69 1006.6
20260906141531 28 128 0.0 4.8 0.00 0.00 0.00 73 1006.7
20260906140032 26 146 0.0 6.4 0.00 0.00 0.00 80 1006.7
20260906134528 25 119 3.2 8.0 0.00 0.00 0.00 84 1006.7
20260906133029 23 360 0.0 4.8 0.00 0.00 0.00 90 1006.6
20260906131537 22 360 0.0 4.8 0.00 0.00 0.00 91 1006.7
20260906130023 22 360 0.0 0.0 0.00 0.00 0.00 90 1006.5
20260906124521 21 180 0.0 0.0 0.00 0.00 0.00 89 1006.3
20260906123022 21 180 0.0 3.2 0.00 0.00 0.00 89 1006.3
20260906121520 21 360 0.0 0.0 0.00 0.00 0.00 88 1006.2
20260906120017 21 360 0.0 0.0 0.00 0.00 0.00 87 1006.0
20260906114514 22 360 0.0 0.0 0.00 0.00 0.00 86 1005.7
20260906113020 22 179 0.0 0.0 0.00 0.00 0.00 86 1005.7
20260906111510 22 180 0.0 0.0 0.00 0.00 0.00 86 1005.6
20260906110007 22 179 0.0 0.0 0.00 0.00 0.00 85 1005.4
20260906104507 22 179 0.0 0.0 0.00 0.00 0.00 84 1005.4
20260906103004 23 179 0.0 0.0 0.00 0.00 0.00 83 1005.2
20260906101503 23 360 0.0 0.0 0.00 0.00 0.00 83 1005.3
20260906094602 23 360 0.0 0.0 0.00 0.00 0.00 82 1005.1
20260906093057 24 360 0.0 0.0 0.00 0.00 0.00 81 1004.8
20260906091554 24 360 0.0 0.0 0.00 0.00 0.00 79 1004.6
20260906090056 25 179 0.0 0.0 0.00 0.00 0.00 79 1004.6
20260906084553 25 360 0.0 0.0 0.00 0.00 0.00 78 1004.7
20260906083052 25 360 1.6 4.8 0.00 0.00 0.00 77 1004.6
20260906081548 25 360 0.0 4.8 0.00 0.00 0.00 77 1004.4
20260906080044 26 360 0.0 4.8 0.00 0.00 0.00 76 1004.8
20260906074543 26 153 1.6 4.8 0.00 0.00 0.00 76 1005.0
20260906073045 26 360 1.6 8.0 0.00 0.00 0.00 76 1005.1
20260906071556 26 360 3.2 8.0 0.00 0.00 0.00 76 1004.8
20260906070040 26 360 3.2 8.0 0.00 0.00 0.00 76 1004.7
20260906064538 26 360 1.6 6.4 0.00 0.00 0.00 76 1005.0
20260906063036 26 360 0.0 4.8 0.00 0.00 0.00 75 1005.2
20260906061534 26 360 0.0 0.0 0.00 0.00 0.00 73 1005.1
20260906060035 26 167 0.0 0.0 0.00 0.00 0.00 73 1005.5
20260906054528 26 167 0.0 4.8 0.00 0.00 0.00 72 1005.4
20260906053029 27 159 1.6 8.0 0.00 0.00 0.00 72 1005.4
20260906051525 27 154 3.2 8.0 0.00 0.00 0.00 71 1005.4
20260906050024 27 152 0.0 0.0 0.00 0.00 0.00 70 1005.4
20260906044521 27 150 0.0 0.0 0.00 0.00 0.00 69 1005.3
20260906043029 27 360 0.0 0.0 0.00 0.00 0.00 67 1005.3
20260906041521 27 360 0.0 0.0 0.00 0.00 0.00 66 1005.1
20260906040028 28 360 0.0 4.8 0.00 0.00 0.00 64 1005.2
20260906034530 28 129 1.6 4.8 0.00 0.00 0.00 62 1005.2
20260906033025 28 360 1.6 6.4 0.00 0.00 0.00 61 1005.0
20260906031519 29 124 3.2 4.8 0.00 0.00 0.00 60 1005.0
20260906030017 29 360 3.2 6.4 0.00 0.00 0.00 58 1005.0
20260906024517 29 155 3.2 12.9 0.00 0.00 0.00 58 1004.8
20260906023017 27 130 6.4 22.5 0.00 0.00 0.00 61 1004.6
20260906021519 27 360 0.0 0.0 0.00 0.00 0.00 62 1004.3
20260906020015 28 360 0.0 0.0 0.00 0.00 0.00 59 1003.9
20260906014526 29 138 0.0 0.0 0.00 0.00 0.00 56 1003.7
20260906013016 30 360 0.0 0.0 0.00 0.00 0.00 53 1003.7
20260906011531 31 140 0.0 0.0 0.00 0.00 0.00 50 1003.5
20260906010014 32 139 0.0 1.6 0.00 0.00 0.00 45 1003.3
20260906004521 33 139 0.0 6.4 0.00 0.00 0.00 43 1003.4
20260906003013 33 137 0.0 6.4 0.00 0.00 0.00 41 1003.3
20260906001512 34 360 0.0 4.8 0.00 0.00 0.00 40 1003.2
20260906000012 35 96 0.0 6.4 0.00 0.00 0.00 39 1003.2
20260905234511 35 136 4.8 8.0 0.00 0.00 0.00 38 1003.0
20260905233011 35 136 3.2 8.0 0.00 0.00 0.00 37 1003.1
20260905231510 36 360 3.2 12.9 0.00 0.00 0.00 37 1003.0
20260905230014 36 360 3.2 12.9 0.00 0.00 0.00 37 1002.9
20260905224520 36 360 3.2 9.7 0.00 0.00 0.00 37 1002.9
20260905223008 36 94 1.6 12.9 0.00 0.00 0.00 38 1003.0